SL-23 DEB, 43385

Orbit data source: Space-Track

SL-23 DEB, 43385 is space debris in HEO originally from a launch on Thu, 26 Feb 2009 UTC launched from the Tyuratam Missile And Space Complex (TTMTR). Debris objects in space refer to the collection of defunct objects orbiting the Earth. Examples of debris include non-operational satellites, rocket bodies, and fragments generated from explosions, collisions, or faulty payload assembly.

Loading next visibility...
Identifier
43385, 2009-009D
Orbit
HEO
Last TLE update
4 months ago
Origin
Flag of CISSpace International Services (CIS)
Manufacturer
Unknown
Mission
Spacecraft
Bus & Motor
Unknown
Mass
Unknown
Launch date (UTC)
2009-02-26 (16 years ago)
Launch vehicle
Unknown
Launch site
Tyuratam Missile And Space Complex (TTMTR)
Object type
Payload
Rocket body
Debris
Shape & HBR
Unknown
Radar Cross Section
Medium (>0.1 m² and <1 m²)

Expand to show TLE details & history

TLE from 4 months ago
0 SL-23 DEB
1 43385U 09009D   25049.24029079 -.00000114  00000-0  00000-0 0  9991
2 43385  34.7773 327.1904 6947111 106.0333   1.5684  2.21230851 93816
Epoch: 2025-02-18T05:46Z
TLE epoch observation values (Epoch: 2025-02-18T05:46:01.124Z)
Latitude
30.56273°
Longitude
-145.4931°
Altitude
1,296.918 km
Speed
9.376 km/s
True Right ascension
05h 57m 50s
True Declination
30° 25' 23"
Sunlit
Object was in daylight at epoch
Visualization orbit readout
Latitude
-8.48298°
Longitude
44.70163°
Altitude
34,840.291 km
Speed
1.822 km/s
Apparent Right ascension
18h 19m 43s
Apparent Declination
-15° 18' 32"
Sunlit
Object is in daylight
Visualization observer readout
Local Sidereal Time
21:12:41
Azimuth
225.324° WSW
Elevation
21.684°
Doppler factor
1
Orbital elements
Apogee altitude
35,789.232 km
Perigee altitude
1,217.983 km
Semi-major axis
24,881.745 km
Eccentricity
0.69471
Inclination
34.7773°
RAAN
327.1904°
Arg. of periapsis
106.0333°
True anomaly
Unknown
Mean anomaly
1.5684°
Eccentric anomaly
Unknown
Mean motion
0.553 °/min
Orbital period
651 mins
BSTAR
0
Loading maneuver chart data...
Loading SW <> Apogee altitude chart data...
Loading historical data...
Loading historical data...
Loading historical data...
Loading historical data...
Loading historical data...
Loading historical data...
Loading historical data...
Other satellites on launch #9 in the year 2009 (2009-02-26 UTC)

SL-23 DEB Visibility forecast

Observer location: undefined°, undefined°

Span
Click to sort rows by Start time (UTC) header in descending order
Start Az.
Max El. time (UTC)
Max El. Az.
Max El.
End time (UTC)
End Az.
258 mins2025-07-01 09:34:23.383Z225.312° WSW2025-07-01 13:41:23.383Z194.466° SSW44.182°2025-07-01 13:52:23.383Z99.812° ESE
370 mins2025-07-02 03:24:23.383Z160.8° S2025-07-02 09:34:23.383Z211.008° SW34.664°2025-07-02 09:34:23.383Z211.008° SW
|